SCGZ

Guardiamarina Zañartu Airport

Airport
ICAO code
SCGZ
IATA Code
WPU
Summary
ICAO Region
CARSAM
ICAO Territory
Location

Puerto Williams, Magallanes y de la Antartica Chilena

Serving
Puerto Williams
Elevation
88 ft
Coordinates
54° 55' 52" S , 67° 37' 35" W
KCC
Metar
SCGZ 191800Z 26009KT 230V290 9999 FEW026 SCT036 BKN080 07/00 Q1004

Airport serving city of Puerto Williams in southern Chile.

Climatology

Sub-polar oceanic climate (Köppen climate classification Cfc)

Runways

Designator Length Width Surface Rops
8/26 1440 29 ASP No/No

Airport map

Aerial View

SKYbrary Partners:

Safety knowledge contributed by: